Location: Bellflower
(33.8817°N, 118.1170°W)
Time: 12:42:00
(UTC+00:00)

Cosmos 1633 - Pass Details

Date: 23 November 2020
Orbit: 462 x 479 km, 82.5° (Epoch: 21 January)

Event Time Altitude Azimuth Distance (km) Brightness Sun altitude
Rises 14:06:40 0° 225° (SW) 2,478 5.9 -5.8°
Reaches altitude 10° 14:09:37 10° 253° (WSW) 1,608 4.7 -5.3°
Maximum altitude 14:11:25 13° 284° (WNW) 1,410 4.3 -4.9°
Drops below altitude 10° 14:13:14 10° 315° (NW) 1,614 4.6 -4.6°
Sets 14:16:12 0° 343° (NNW) 2,495 5.8 -4.0°
